Weather History for Hutchinson, MN

Change the Weather History Date:

Friday, October 11, 2013

  Actual Average Record
Temperature  
Mean Temperature 63 °F -  
Max Temperature 72 °F 60 °F 84 °F (1974)
Min Temperature 55 °F 38 °F 20 °F (1987)
Degree Days  
Heating Degree Days 2    
Growing Degree Days 13 (Base 50)    
Moisture  
Dew Point 55 °F    
Average Humidity 74    
Maximum Humidity 90    
Minimum Humidity 57    
Precipitation  
Precipitation 0.46 in - - ()
Sea Level Pressure  
Sea Level Pressure 29.72 in    
Wind  
Wind Speed 11 mph (SSE)    
Max Wind Speed 26 mph    
Max Gust Speed 38 mph    
Visibility 10 miles    
Events Rain    
Averages and records for this station are not official NWS values.
T = Trace of Precipitation, MM = Missing Value Source: NWS Daily Summary

Daily Weather History Graph

Daily Weather History Graph

Search for Another Location

Airport:

Trip Planner

Search our weather history database for the weather conditions in past years. The results will help you decide how hot, cold, wet, or windy it might be!

Date:

Astronomy

Oct. 11, 2013 Rise Set
Actual Time 7:28 AM CDT 6:39 PM CDT
Civil Twilight 6:58 AM CDT 7:08 PM CDT
Nautical Twilight 6:25 AM CDT 7:42 PM CDT
Astronomical Twilight 5:50 AM CDT 8:16 PM CDT
Moon 2:18 PM CDT (10/11) No Moon Set
Length of Visible Light 12h 09m
Length of Day
11h 10m
Waxing Crescent, 47% of the Moon is Illuminated
Oct 11
Waxing Crescent
Oct 11
First Quarter
Oct 18
Full
Oct 26
Last Quarter
Nov 3
New

Hourly Weather History & Observations

Time (CDT) Temp. Dew Point Humidity Pressure Visibility Wind Dir Wind Speed Gust Speed Precip Events Conditions
12:13 AM 61.9 °F 50.9 °F 67% 29.84 in 10.0 mi SE 6.9 mph - N/A   Clear
12:33 AM 60.8 °F 50.9 °F 70% 29.84 in 10.0 mi SE 8.1 mph - N/A   Clear
12:54 AM 59.9 °F 50.9 °F 72% 29.84 in 10.0 mi SE 6.9 mph - N/A   Clear
1:13 AM 59.5 °F 50.9 °F 73% 29.84 in 10.0 mi SE 8.1 mph - N/A   Clear
1:33 AM 60.8 °F 51.1 °F 70% 29.84 in 10.0 mi SE 8.1 mph - N/A   Clear
1:54 AM 60.8 °F 51.1 °F 70% 29.84 in 10.0 mi SE 8.1 mph - N/A   Clear
2:14 AM 59.9 °F 51.3 °F 73% 29.84 in 10.0 mi SE 8.1 mph - N/A   Clear
2:21 AM 60.1 °F 51.3 °F 73% 29.84 in 10.0 mi SE 9.2 mph - N/A   Clear
2:45 AM 60.8 °F 51.8 °F 72% 29.84 in 10.0 mi SE 9.2 mph - N/A   Clear
3:05 AM 60.8 °F 51.8 °F 72% 29.84 in 10.0 mi SE 9.2 mph - N/A   Clear
3:25 AM 59.0 °F 51.8 °F 77% 29.84 in 10.0 mi SE 8.1 mph - N/A   Clear
3:45 AM 59.0 °F 51.8 °F 77% 29.83 in 10.0 mi SE 8.1 mph - N/A   Clear
4:05 AM 59.0 °F 51.8 °F 77% 29.83 in 10.0 mi SE 9.2 mph - N/A   Clear
4:25 AM 59.0 °F 51.8 °F 77% 29.84 in 10.0 mi SE 9.2 mph - N/A   Clear
4:45 AM 59.0 °F 51.8 °F 77% 29.84 in 10.0 mi SE 6.9 mph - N/A   Clear
5:05 AM 59.0 °F 51.8 °F 77% 29.84 in 10.0 mi SE 8.1 mph - N/A   Clear
5:25 AM 59.0 °F 51.8 °F 77% 29.83 in 10.0 mi SE 9.2 mph - N/A   Clear
5:45 AM 59.0 °F 51.8 °F 77% 29.82 in 10.0 mi ESE 11.5 mph - N/A   Clear
6:05 AM 59.0 °F 51.8 °F 77% 29.82 in 10.0 mi SE 11.5 mph - N/A   Clear
6:25 AM 57.2 °F 51.8 °F 82% 29.81 in 10.0 mi ESE 11.5 mph - N/A   Clear
6:45 AM 57.2 °F 51.8 °F 82% 29.80 in 10.0 mi ESE 10.4 mph - N/A   Clear
7:18 AM 57.4 °F 52.3 °F 83% 29.80 in 10.0 mi ESE 11.5 mph - N/A   Clear
7:34 AM 57.0 °F 52.3 °F 84% 29.79 in 10.0 mi ESE 11.5 mph - N/A   Clear
7:53 AM 56.8 °F 52.7 °F 86% 29.79 in 10.0 mi ESE 10.4 mph - N/A   Clear
8:13 AM 57.7 °F 52.9 °F 84% 29.78 in 10.0 mi ESE 13.8 mph - N/A   Clear
8:34 AM 58.1 °F 53.1 °F 83% 29.78 in 10.0 mi ESE 11.5 mph 18.4 mph N/A   Clear
8:54 AM 59.2 °F 53.6 °F 82% 29.77 in 10.0 mi ESE 13.8 mph 19.6 mph N/A   Clear
9:14 AM 61.2 °F 53.8 °F 77% 29.76 in 10.0 mi ESE 16.1 mph 25.3 mph N/A   Clear
9:33 AM 63.1 °F 54.1 °F 72% 29.74 in 10.0 mi ESE 19.6 mph 27.6 mph N/A   Clear
9:53 AM 64.2 °F 54.5 °F 71% 29.73 in 10.0 mi ESE 19.6 mph 27.6 mph N/A   Clear
10:14 AM 64.6 °F 54.7 °F 70% 29.72 in 10.0 mi ESE 17.3 mph 24.2 mph N/A   Clear
10:33 AM 67.1 °F 55.8 °F 67% 29.72 in 10.0 mi ESE 18.4 mph 27.6 mph N/A   Clear
10:54 AM 68.2 °F 55.6 °F 64% 29.71 in 10.0 mi ESE 21.9 mph 28.8 mph N/A   Clear
11:13 AM 69.8 °F 55.9 °F 61% 29.70 in 10.0 mi SE 17.3 mph 32.2 mph N/A   Clear
11:34 AM 68.9 °F 55.8 °F 63% 29.71 in 10.0 mi SSE 16.1 mph 26.5 mph N/A   Clear
11:53 AM 69.1 °F 55.8 °F 62% 29.71 in 10.0 mi SE 18.4 mph 28.8 mph N/A   Clear
12:14 PM 68.5 °F 55.8 °F 64% 29.69 in 10.0 mi SE 19.6 mph 28.8 mph N/A   Clear
12:33 PM 69.6 °F 55.8 °F 61% 29.66 in 10.0 mi SE 21.9 mph 32.2 mph N/A   Scattered Clouds
12:53 PM 69.8 °F 55.6 °F 61% 29.66 in 10.0 mi SE 24.2 mph 35.7 mph N/A   Mostly Cloudy
1:14 PM 69.8 °F 55.6 °F 61% 29.64 in 10.0 mi SE 23.0 mph 34.5 mph N/A   Overcast
1:33 PM 70.7 °F 55.4 °F 58% 29.62 in 10.0 mi SE 21.9 mph 36.8 mph N/A   Overcast
1:53 PM 71.6 °F 55.4 °F 57% 29.61 in 10.0 mi SE 21.9 mph 38.0 mph N/A   Overcast
2:14 PM 70.7 °F 55.4 °F 58% 29.59 in 10.0 mi SE 26.5 mph 35.7 mph N/A   Overcast
2:33 PM 70.2 °F 57.0 °F 63% 29.62 in 4.0 mi South 11.5 mph 31.1 mph 0.13 in Rain Heavy Rain
2:53 PM 63.9 °F 61.0 °F 90% 29.63 in 5.0 mi SSW 11.5 mph 17.3 mph 0.41 in Rain Heavy Rain
3:13 PM 65.8 °F 62.1 °F 88% 29.62 in 7.0 mi SSE 13.8 mph 26.5 mph 0.02 in Rain Light Rain
3:33 PM 66.2 °F 61.0 °F 83% 29.62 in 10.0 mi South 13.8 mph 21.9 mph 0.02 in   Overcast
3:54 PM 66.4 °F 60.8 °F 82% 29.61 in 10.0 mi SSE 11.5 mph 21.9 mph 0.02 in   Overcast
4:13 PM 66.7 °F 61.0 °F 82% 29.60 in 10.0 mi SSE 8.1 mph 18.4 mph N/A   Overcast
4:34 PM 67.3 °F 61.2 °F 81% 29.62 in 10.0 mi SSE 6.9 mph - N/A   Overcast
4:54 PM 69.1 °F 61.3 °F 76% 29.62 in 10.0 mi SSE 13.8 mph 19.6 mph N/A   Overcast
5:13 PM 70.2 °F 61.7 °F 74% 29.63 in 10.0 mi SSE 13.8 mph 24.2 mph N/A   Mostly Cloudy
5:33 PM 70.2 °F 60.8 °F 72% 29.63 in 10.0 mi South 19.6 mph 32.2 mph N/A   Scattered Clouds
5:53 PM 69.6 °F 60.3 °F 72% 29.63 in 10.0 mi SSE 13.8 mph 25.3 mph N/A   Clear
6:13 PM 69.3 °F 59.5 °F 71% 29.62 in 10.0 mi SSE 10.4 mph 24.2 mph N/A   Clear
6:34 PM 68.4 °F 59.5 °F 73% 29.61 in 10.0 mi SE 13.8 mph 24.2 mph N/A   Clear
6:53 PM 68.4 °F 59.2 °F 72% 29.60 in 10.0 mi SSE 13.8 mph 24.2 mph N/A   Clear
7:14 PM 67.8 °F 59.2 °F 74% 29.59 in 10.0 mi SE 18.4 mph 25.3 mph N/A   Clear
7:33 PM 68.0 °F 59.2 °F 73% 29.59 in 10.0 mi SE 16.1 mph 29.9 mph N/A   Scattered Clouds
7:53 PM 68.2 °F 59.7 °F 74% 29.59 in 10.0 mi SSE 18.4 mph 27.6 mph N/A   Mostly Cloudy
8:13 PM 68.0 °F 59.9 °F 75% 29.60 in 10.0 mi SSE 13.8 mph 26.5 mph N/A   Overcast
8:34 PM 65.8 °F 61.5 °F 86% 29.61 in 7.0 mi South 16.1 mph 21.9 mph 0.02 in Rain Heavy Rain
8:54 PM 64.6 °F 60.3 °F 86% 29.63 in 10.0 mi South 13.8 mph 24.2 mph 0.03 in   Mostly Cloudy
9:13 PM 63.5 °F 58.6 °F 84% 29.64 in 10.0 mi South 11.5 mph 17.3 mph N/A   Clear
9:33 PM 63.0 °F 56.5 °F 79% 29.65 in 10.0 mi South 8.1 mph 16.1 mph N/A   Clear
9:54 PM 62.2 °F 53.1 °F 72% 29.66 in 10.0 mi SW 10.4 mph 17.3 mph N/A   Clear
10:14 PM 60.8 °F 51.1 °F 70% 29.67 in 10.0 mi SW 15.0 mph 20.7 mph N/A   Clear
10:33 PM 58.6 °F 50.4 °F 74% 29.69 in 10.0 mi SW 6.9 mph - N/A   Mostly Cloudy
10:53 PM 56.8 °F 49.1 °F 75% 29.69 in 10.0 mi SW 11.5 mph 17.3 mph N/A   Scattered Clouds
11:14 PM 55.6 °F 48.6 °F 77% 29.70 in 10.0 mi SW 11.5 mph - N/A   Clear
11:33 PM 55.4 °F 48.6 °F 78% 29.71 in 10.0 mi SSW 8.1 mph - N/A   Mostly Cloudy
11:54 PM 55.0 °F 48.4 °F 78% 29.72 in 10.0 mi SW 11.5 mph 17.3 mph N/A   Overcast